Погода в Вознесенке

Украина / Запорожская область     46°52′07″N   35°27′19″E
темп.,
°C
ветер,
м/с
пор.,
м/с
влажн.,
%
обл.,
%
осадки,
мм/ч
давл.,
гПа
погр.,
м
7 мая, пт
пт700:00+12сз51068100 0.0 1013237
03:00+11зсз3585100 0.0 1014118
06:00+11сз259457 0.0 1015155
09:00+15с3365100 0.0 1016743
12:00+19ссз2241100 0.0 10161391
15:00+21ююз33375 0.0 10161868
18:00+18ю565559 0.0 1015472
21:00+13ююв487956 0.0 1016178
8 мая, сб
сб800:00+13ююв41074100 0.0 1014270
03:00+12ююв41181100 0.0 1013300
06:00+13ююв41085100 0.0 1012357
09:00+16ю5671100 0.0 1012502
12:00+21ююз4549100 0.0 10111205
15:00+23юз564396 0.0 10101987
18:00+15ссз91072100 0.1 1012800
21:00+11ссз81282100 0.1 1014708
9 мая, вс
вс900:00+9с71388100 3.6 1014900
03:00+8с71185100 4.1 10171013
06:00+7ссз71282100 0.3 1017995
09:00+10ссз91367100 0.3 10191125
12:00+13ссз101241100 0.0 10201693
15:00+15ссз9113683 0.0 10222474
18:00+15ссз7104190 0.0 10232338
21:00+12ссз613504 0.1 1025564
10 мая, пн
пн1000:00+8сз49663 0.0 1026161
03:00+7ссз411760 0.0 1026216
06:00+6ссз412753 0.0 1026316
09:00+12с913465 0.0 10261478
12:00+15с9113983 0.0 10241942
15:00+16с9113799 0.0 10232206
18:00+13с81450100 0.0 10221399
21:00+12ссз51254100 0.0 1024393
11 мая, вт
вт1100:00+12с91563100 0.1 1019749
03:00+11с81573100 0.1 1018571
06:00+12ссв71275100 0.0 1018606
09:00+12ссв61077100 0.0 1018828
12:00+12ссв5887100 0.4 1018793
15:00+12всв4677100 0.8 1018736
18:00+13св796538 0.1 10171262
21:00+11всв7128335 0.3 1017759